TimeEST,TemperatureF,Dew PointF,Humidity,Sea Level PressureIn,VisibilityMPH,Wind Direction,Wind SpeedMPH,Gust SpeedMPH,PrecipitationIn,Events,Conditions,WindDirDegrees,DateUTC
12:53 AM,51.8,46.4,82,30.22,10.0,Calm,Calm,-,N/A,,Clear,0,2012-12-04 05:53:00
1:53 AM,48.9,46.0,90,30.22,10.0,North,3.5,-,N/A,,Clear,10,2012-12-04 06:53:00
2:53 AM,48.0,45.0,89,30.22,10.0,Calm,Calm,-,N/A,,Scattered Clouds,0,2012-12-04 07:53:00
3:53 AM,46.0,44.1,93,30.22,8.0,Calm,Calm,-,N/A,,Mostly Cloudy,0,2012-12-04 08:53:00
4:53 AM,46.9,44.1,90,30.22,9.0,Calm,Calm,-,N/A,,Overcast,0,2012-12-04 09:53:00
5:53 AM,48.9,46.0,90,30.24,10.0,Calm,Calm,-,N/A,,Overcast,0,2012-12-04 10:53:00
6:53 AM,48.0,45.0,89,30.24,10.0,SSE,3.5,-,N/A,,Mostly Cloudy,160,2012-12-04 11:53:00
7:53 AM,50.0,46.0,86,30.26,10.0,Calm,Calm,-,N/A,,Mostly Cloudy,0,2012-12-04 12:53:00
8:53 AM,52.0,46.9,83,30.26,10.0,Calm,Calm,-,N/A,,Mostly Cloudy,0,2012-12-04 13:53:00
9:53 AM,57.9,48.9,72,30.26,10.0,Calm,Calm,-,N/A,,Mostly Cloudy,0,2012-12-04 14:53:00
10:53 AM,66.9,51.1,57,30.25,10.0,SSW,12.7,18.4,N/A,,Mostly Cloudy,210,2012-12-04 15:53:00
11:53 AM,69.1,51.1,53,30.22,10.0,SSW,12.7,20.7,N/A,,Mostly Cloudy,200,2012-12-04 16:53:00
12:53 PM,70.0,50.0,49,30.20,10.0,SW,20.7,-,N/A,,Mostly Cloudy,230,2012-12-04 17:53:00
1:53 PM,72.0,50.0,46,30.17,10.0,SW,16.1,-,N/A,,Mostly Cloudy,220,2012-12-04 18:53:00
2:53 PM,70.0,51.1,51,30.16,10.0,SW,12.7,-,N/A,,Mostly Cloudy,230,2012-12-04 19:53:00
3:53 PM,69.1,50.0,51,30.15,10.0,SSW,11.5,-,N/A,,Overcast,210,2012-12-04 20:53:00
4:53 PM,66.9,48.9,52,30.16,10.0,SW,9.2,-,N/A,,Overcast,230,2012-12-04 21:53:00
5:53 PM,64.9,50.0,58,30.17,10.0,West,6.9,-,0.00,Rain,Light Rain,260,2012-12-04 22:53:00
6:53 PM,63.0,51.1,65,30.18,10.0,SW,6.9,-,0.00,,Overcast,230,2012-12-04 23:53:00
7:53 PM,60.1,52.0,75,30.18,10.0,South,6.9,-,0.01,,Mostly Cloudy,190,2012-12-05 00:53:00
8:53 PM,61.0,52.0,72,30.17,10.0,SSW,4.6,-,N/A,,Overcast,200,2012-12-05 01:53:00
9:53 PM,60.1,53.1,78,30.17,10.0,SW,8.1,-,N/A,,Overcast,230,2012-12-05 02:53:00
10:53 PM,62.1,52.0,70,30.15,10.0,SW,12.7,-,N/A,,Mostly Cloudy,220,2012-12-05 03:53:00
11:53 PM,60.1,52.0,75,30.14,10.0,SW,11.5,-,N/A,,Partly Cloudy,230,2012-12-05 04:53:00